Preview of NWS' New Version of Forecast
This preview is not operational and should not be used for support decisions.

Regional Weather Roundup (RWR)

Issued by National Weather Service (NWS)

                            
000
ASUS44 KJAN 190410
RWRMS 

MISSISSIPPI HOURLY WEATHER ROUNDUP
NATIONAL WEATHER SERVICE JACKSON MS
1100 PM CDT WED SEP 18 2019

NOTE: "FAIR: INDICATES FEW OR NO CLOUDS BELOW 12,000 FEET WITH NO
SIGNIFICANT WEATHER AND/OR OBSTRUCTIONS TO VISIBILITY.

MSZ001>002-007>008-010>013-018>021-025>028-034>036-190500-
NORTHWEST MISSISSIPPI
  
CITY           SKY/WX    TMP DP  RH WIND       PRES   REMARKS
BATESVILLE       N/A     72  72 100 CALM      29.97S                  
CLARKSDALE       N/A     77  68  73 CALM      29.97S                  
CLEVELAND      FAIR      81  70  70 SW8       29.97R                  
GREENWOOD      FAIR      78  72  81 CALM      29.97R                  
GREENVILLE     FAIR      80  71  74 SW3       29.97S                  
OLIVE BRANCH   CLEAR     81  68  65 NE5       29.98S                  
OXFORD         FAIR      75  68  78 CALM      30.00S                  
TUNICA           N/A     77  70  78 E5        29.98S HAZE             
WINONA         FAIR      73  72  96 CALM      29.97F                  
$$

MSZ003>006-009-014>017-022>024-029>033-037>039-190500-
NORTHEAST MISSISSIPPI
  
CITY           SKY/WX    TMP DP  RH WIND       PRES   REMARKS
ABERDEEN       FAIR      70  54  56 CALM      29.99S                  
COLUMBUS AFB   FAIR      75  71  88 CALM      29.97S                  
CORINTH        FAIR      72  70  94 CALM      30.00S                  
GOLDN TRIANGLE FAIR      76  70  82 CALM      29.98S                  
STARKVILLE       N/A     72  70  94 CALM      29.99S                  
TUPELO         FAIR      79  70  74 CALM      29.98S                  
$$

MSZ040-058-190500-
CENTRAL MISSISSIPPI
  
CITY           SKY/WX    TMP DP  RH WIND       PRES   REMARKS
JACKSON INTL   FAIR      78  69  73 SW3       29.99R                  
JACKSON HAWKNS FAIR      78  70  76 W3        29.99S                  
MADISON        FAIR      77  70  78 W5        30.00R                  
MERIDIAN KEY   FAIR      77  72  84 SE7       29.99R                  
MERIDIAN NAS   MOCLDY    80  67  64 CALM      29.98F                  
RAYMOND        FAIR      75  75 100 CALM      29.98F                  
VICKSBURG VKS  CLEAR     75  75 100 CALM      29.98S                  
$$

MSZ059>079-190500-
SOUTH MISSISSIPPI
  
CITY           SKY/WX    TMP DP  RH WIND       PRES   REMARKS
BROOKHAVEN     FAIR      73  70  88 CALM      30.00F                  
HATTIESBURG    FAIR      79  71  76 CALM      29.98S                  
LAUREL         CLEAR     79  71  75 W5        29.98S                  
MCCOMB         FAIR      73  70  90 CALM      29.99S                  
NATCHEZ        FAIR      73  71  93 S5        29.99S                  
PINE BELT        N/A    N/A N/A N/A MISG        N/A                   
$$

MSZ080>082-190500-
COASTAL MISSISSIPPI
  
CITY           SKY/WX    TMP DP  RH WIND       PRES   REMARKS
BILOXI         FAIR      79  73  82 CALM      29.95F                  
PASCAGOULA     FAIR      74  71  91 CALM      29.96F                  
GULFPORT       FAIR      78  73  84 W5        29.96S                  
$$

LAZ007>009-015>016-023>026-190500-
NORTHEAST LOUISIANA
  
CITY           SKY/WX    TMP DP  RH WIND       PRES   REMARKS
BASTROP        FAIR      72  72  98 CALM      29.98S                  
TALLULAH/VBURG FAIR      75  70  84 CALM      29.98R                  
VIDALIA        FAIR     N/A N/A N/A SE3       29.96F                  
$$